• In Czech Republic
  • List of Countries
  • For 7 days
  • Water Temperature
  • Satellite Maps
  • Weather Map
  • Weather Widgets
  • user-avatar
    Login

    Hourly Weather Saurimo

    Today, 29 June, Thursday

    Time Temperature Precipitation Wind Pressure Humidity
    00:00 +16°C° 0 mm 2 mps 671 mmHg 44%
    01:00 +15°C° 0 mm 2 mps 671 mmHg 45%
    02:00 +15°C° 0 mm 2 mps 671 mmHg 46%
    03:00 +14°C° 0 mm 2 mps 671 mmHg 48%
    04:00 +14°C° 0 mm 2 mps 671 mmHg 49%
    05:00 +14°C° 0 mm 2 mps 671 mmHg 50%
    06:00 +15°C° 0 mm 2 mps 671 mmHg 50%
    07:00 +15°C° 0 mm 2 mps 672 mmHg 51%
    08:00 +19°C° 0 mm 3 mps 673 mmHg 44%
    09:00 +24°C° 0 mm 3 mps 673 mmHg 37%
    10:00 +27°C° 0 mm 4 mps 674 mmHg 30%
    11:00 +29°C° 0 mm 3 mps 674 mmHg 26%
    12:00 +31°C° 0 mm 2 mps 674 mmHg 22%
    13:00 +33°C° 0 mm 1 mps 673 mmHg 18%
    14:00 +32°C° 0 mm 1 mps 673 mmHg 18%
    15:00 +32°C° 0 mm 1 mps 672 mmHg 18%
    16:00 +31°C° 0 mm 1 mps 672 mmHg 19%
    17:00 +27°C° 0 mm 1 mps 671 mmHg 24%
    18:00 +24°C° 0 mm 1 mps 671 mmHg 29%
    19:00 +20°C° 0 mm 2 mps 670 mmHg 35%
    20:00 +19°C° 0 mm 2 mps 671 mmHg 36%
    21:00 +19°C° 0 mm 2 mps 671 mmHg 37%
    22:00 +18°C° 0 mm 2 mps 672 mmHg 39%
    23:00 +18°C° 0 mm 2 mps 672 mmHg 41%

    Tomorrow, 30 June, Friday

    Time Temperature Precipitation Wind Pressure Humidity
    00:00 +17°C° 0 mm 2 mps 671 mmHg 43%
    01:00 +16°C° 0 mm 2 mps 671 mmHg 46%
    02:00 +16°C° 0 mm 2 mps 671 mmHg 47%
    03:00 +16°C° 0 mm 2 mps 671 mmHg 48%
    04:00 +16°C° 0 mm 2 mps 671 mmHg 48%
    05:00 +16°C° 0 mm 3 mps 671 mmHg 48%
    06:00 +17°C° 0 mm 3 mps 672 mmHg 48%
    07:00 +17°C° 0 mm 3 mps 672 mmHg 48%
    08:00 +20°C° 0 mm 3 mps 673 mmHg 42%
    09:00 +25°C° 0 mm 3 mps 674 mmHg 35%
    10:00 +28°C° 0 mm 4 mps 675 mmHg 29%
    11:00 +30°C° 0 mm 3 mps 674 mmHg 26%
    12:00 +31°C° 0 mm 2 mps 674 mmHg 23%
    13:00 +34°C° 0 mm 2 mps 673 mmHg 19%
    14:00 +32°C° 0 mm 2 mps 673 mmHg 20%
    15:00 +32°C° 0 mm 1 mps 672 mmHg 20%
    16:00 +32°C° 0 mm 1 mps 672 mmHg 20%
    17:00 +28°C° 0 mm 1 mps 671 mmHg 26%
    18:00 +25°C° 0 mm 2 mps 671 mmHg 31%
    19:00 +21°C° 0 mm 2 mps 671 mmHg 37%
    20:00 +20°C° 0 mm 2 mps 671 mmHg 38%
    21:00 +20°C° 0 mm 2 mps 672 mmHg 40%
    22:00 +19°C° 0 mm 2 mps 672 mmHg 41%
    23:00 +19°C° 0 mm 2 mps 672 mmHg 42%

    Day after tomorrow, 1 July, Saturday

    Time Temperature Precipitation Wind Pressure Humidity
    00:00 +18°C° 0 mm 2 mps 671 mmHg 43%
    01:00 +18°C° 0 mm 2 mps 671 mmHg 44%
    02:00 +17°C° 0 mm 2 mps 671 mmHg 45%
    03:00 +17°C° 0 mm 2 mps 671 mmHg 46%
    04:00 +17°C° 0 mm 2 mps 671 mmHg 47%
    05:00 +17°C° 0 mm 3 mps 671 mmHg 48%
    06:00 +17°C° 0 mm 3 mps 672 mmHg 48%
    07:00 +17°C° 0 mm 3 mps 672 mmHg 49%
    08:00 +21°C° 0 mm 3 mps 673 mmHg 42%
    09:00 +25°C° 0 mm 4 mps 674 mmHg 35%
    10:00 +28°C° 0 mm 4 mps 675 mmHg 28%
    11:00 +29°C° 0 mm 4 mps 674 mmHg 25%
    12:00 +31°C° 0 mm 3 mps 673 mmHg 23%
    13:00 +33°C° 0 mm 3 mps 673 mmHg 21%
    14:00 +31°C° 0 mm 3 mps 672 mmHg 21%
    15:00 +31°C° 0 mm 2 mps 672 mmHg 21%
    16:00 +31°C° 0 mm 2 mps 671 mmHg 22%
    17:00 +28°C° 0 mm 2 mps 671 mmHg 27%
    18:00 +25°C° 0 mm 2 mps 671 mmHg 33%
    19:00 +20°C° 0 mm 2 mps 671 mmHg 38%
    20:00 +20°C° 0 mm 2 mps 671 mmHg 39%
    21:00 +19°C° 0 mm 2 mps 672 mmHg 40%
    22:00 +18°C° 0 mm 2 mps 672 mmHg 42%
    23:00 +18°C° 0 mm 2 mps 672 mmHg 43%

    2 July, Sunday

    Time Temperature Precipitation Wind Pressure Humidity
    00:00 +17°C° 0 mm 2 mps 671 mmHg 44%
    01:00 +17°C° 0 mm 2 mps 671 mmHg 46%
    02:00 +16°C° 0 mm 2 mps 671 mmHg 48%
    03:00 +16°C° 0 mm 2 mps 670 mmHg 51%
    04:00 +15°C° 0 mm 2 mps 670 mmHg 53%
    05:00 +16°C° 0 mm 2 mps 671 mmHg 52%
    06:00 +16°C° 0 mm 3 mps 672 mmHg 50%
    07:00 +17°C° 0 mm 3 mps 672 mmHg 49%
    08:00 +20°C° 0 mm 3 mps 673 mmHg 41%
    09:00 +25°C° 0 mm 3 mps 674 mmHg 32%
    10:00 +28°C° 0 mm 4 mps 674 mmHg 24%
    11:00 +29°C° 0 mm 3 mps 674 mmHg 21%
    12:00 +31°C° 0 mm 3 mps 673 mmHg 19%
    13:00 +32°C° 0 mm 2 mps 672 mmHg 16%
    14:00 +32°C° 0 mm 2 mps 672 mmHg 16%
    15:00 +31°C° 0 mm 2 mps 671 mmHg 16%
    16:00 +31°C° 0 mm 2 mps 671 mmHg 16%
    17:00 +28°C° 0 mm 2 mps 671 mmHg 20%
    18:00 +24°C° 0 mm 2 mps 671 mmHg 24%
    19:00 +20°C° 0 mm 2 mps 670 mmHg 28%
    20:00 +19°C° 0 mm 2 mps 671 mmHg 29%
    21:00 +18°C° 0 mm 2 mps 671 mmHg 30%
    22:00 +18°C° 0 mm 2 mps 671 mmHg 31%
    23:00 +17°C° 0 mm 2 mps 671 mmHg 32%

    3 July, Monday

    Time Temperature Precipitation Wind Pressure Humidity
    00:00 +16°C° 0 mm 2 mps 671 mmHg 34%
    01:00 +16°C° 0 mm 2 mps 670 mmHg 36%
    02:00 +15°C° 0 mm 2 mps 670 mmHg 39%
    03:00 +15°C° 0 mm 2 mps 670 mmHg 42%
    04:00 +14°C° 0 mm 2 mps 670 mmHg 45%
    05:00 +15°C° 0 mm 2 mps 671 mmHg 45%
    06:00 +15°C° 0 mm 2 mps 671 mmHg 46%
    07:00 +16°C° 0 mm 2 mps 671 mmHg 47%
    08:00 +19°C° 0 mm 3 mps 672 mmHg 39%
    09:00 +24°C° 0 mm 3 mps 673 mmHg 32%
    10:00 +28°C° 0 mm 4 mps 673 mmHg 25%
    11:00 +30°C° 0 mm 3 mps 673 mmHg 22%
    12:00 +31°C° 0 mm 2 mps 673 mmHg 19%
    13:00 +34°C° 0 mm 2 mps 672 mmHg 16%
    14:00 +32°C° 0 mm 2 mps 672 mmHg 16%
    15:00 +32°C° 0 mm 1 mps 671 mmHg 16%
    16:00 +31°C° 0 mm 1 mps 671 mmHg 16%
    17:00 +28°C° 0 mm 1 mps 671 mmHg 21%
    18:00 +24°C° 0 mm 2 mps 670 mmHg 25%
    19:00 +20°C° 0 mm 2 mps 670 mmHg 30%
    20:00 +19°C° 0 mm 2 mps 670 mmHg 31%
    21:00 +19°C° 0 mm 2 mps 670 mmHg 32%
    22:00 +18°C° 0 mm 2 mps 671 mmHg 33%
    23:00 +17°C° 0 mm 2 mps 670 mmHg 34%

    4 July, Tuesday

    Time Temperature Precipitation Wind Pressure Humidity
    00:00 +17°C° 0 mm 2 mps 670 mmHg 34%
    01:00 +16°C° 0 mm 2 mps 670 mmHg 35%
    02:00 +16°C° 0 mm 2 mps 670 mmHg 36%
    03:00 +15°C° 0 mm 2 mps 670 mmHg 37%
    04:00 +15°C° 0 mm 2 mps 670 mmHg 37%
    05:00 +15°C° 0 mm 2 mps 671 mmHg 38%
    06:00 +16°C° 0 mm 2 mps 671 mmHg 38%
    07:00 +16°C° 0 mm 2 mps 672 mmHg 39%
    08:00 +20°C° 0 mm 3 mps 673 mmHg 33%
    09:00 +25°C° 0 mm 3 mps 673 mmHg 26%
    10:00 +29°C° 0 mm 4 mps 674 mmHg 20%
    11:00 +30°C° 0 mm 3 mps 673 mmHg 18%
    12:00 +32°C° 0 mm 2 mps 673 mmHg 16%
    13:00 +34°C° 0 mm 2 mps 673 mmHg 13%
    14:00 +34°C° 0 mm 2 mps 672 mmHg 14%
    15:00 +32°C° 0 mm 2 mps 672 mmHg 14%
    16:00 +32°C° 0 mm 2 mps 671 mmHg 14%
    17:00 +29°C° 0 mm 2 mps 671 mmHg 19%
    18:00 +25°C° 0 mm 2 mps 671 mmHg 23%
    19:00 +21°C° 0 mm 2 mps 671 mmHg 27%
    20:00 +20°C° 0 mm 2 mps 671 mmHg 28%
    21:00 +19°C° 0 mm 2 mps 671 mmHg 29%
    22:00 +19°C° 0 mm 2 mps 671 mmHg 30%
    23:00 +18°C° 0 mm 2 mps 671 mmHg 30%
    Show more